Home > Weather > Qyzylorda > Past weeks

Flag for Kazakhstan Past Weather in Qyzylorda, Kazakhstan — Yesterday and Last 2 Weeks

Now
70 °F

Passing clouds.


Feels Like: 70 °F
Forecast: 64 / 89 °F
Wind: 10 mph from North

Location: Kzyl-Orda

Current Time: Jul 2, 2016 at 8:14:45 AM

Latest Report: Jul 2, 2016 at 7:30 AM


Visibility: N/A

Pressure: 29.59 "Hg

Humidity: 40%

Dew Point: 45 °F

Location of QyzylordaLocation

Past Weather in Qyzylorda — Graph

°F

Qyzylorda Temperature Yesterday

Maximum temperature yesterday: 91 °F (at 4:00 PM)
Minimum temperature yesterday: 72 °F (at 6:00 AM)
Average temperature yesterday: 83 °F

High & Low Weather Summary for the Past Weeks

 TemperatureHumidityPressure
High99 °F (Jun 25, 12:30 PM)100% (Jun 25, 9:00 PM)30.09 "Hg (Jun 25, 9:00 PM)
Low55 °F (Jun 27, 6:00 AM)11% (Jun 24, 2:00 PM)29.56 "Hg (Jul 1, 7:00 PM)
Average80 °F35%29.84 "Hg
* Reported Jun 17 7:00 AM — Jul 2 7:00 AM, Qyzylorda, Weather by CustomWeather, © 2016

Note: Actual official high and low records may vary slightly from our data, if they occured in-between our weather recording intervals... More about our weather records

Advertising

Qyzylorda Weather History for the Previous 24 Hours

Scroll right to see more
 ConditionsComfort  
Time TempWeatherWind HumidityBarometerVisibility
7:00 AM
Sat, Jul 2
68 °FSunny.8 mph43%29.56 "Hg10 mi
6:30 AM68 °FClear.8 mph43%29.56 "Hg10 mi
6:00 AM68 °FClear.N/A40%29.56 "Hg10 mi
5:30 AM68 °FClear.8 mph40%29.56 "Hg10 mi
5:00 AM70 °FClear.8 mph35%29.56 "Hg10 mi
4:00 AM70 °FClear.6 mph35%29.56 "Hg10 mi
3:00 AM68 °FClear.3 mph49%29.56 "Hg10 mi
2:00 AM70 °FClear.6 mph46%29.56 "Hg10 mi
1:00 AM70 °FClear.6 mph46%29.59 "Hg10 mi
12:00 AM72 °FClear.6 mph44%29.59 "Hg10 mi
11:00 PM
Fri, Jul 1
73 °FClear.3 mph44%29.59 "Hg10 mi
10:00 PM79 °FSunny.3 mph32%29.56 "Hg10 mi
9:30 PM81 °FSunny.6 mph30%29.56 "Hg10 mi
9:00 PM86 °FSunny.6 mph22%29.56 "Hg10 mi
8:30 PM88 °FPassing clouds.3 mph19%29.56 "HgN/A
8:00 PM90 °FSunny.6 mph14%29.56 "Hg10 mi
7:30 PM90 °FSunny.8 mph13%29.59 "Hg10 mi
7:00 PM91 °FPassing clouds.6 mph13%29.56 "HgN/A
6:30 PM91 °FSunny.8 mph12%29.59 "Hg10 mi
6:00 PM91 °FPassing clouds.8 mph11%29.59 "HgN/A
5:30 PM91 °FSunny.8 mph13%29.59 "Hg10 mi
5:00 PM91 °FSunny.8 mph12%29.59 "Hg10 mi
4:30 PM91 °FPassing clouds.8 mph13%29.59 "HgN/A
4:00 PM91 °FSunny.8 mph12%29.59 "Hg10 mi
3:30 PM90 °FPassing clouds.8 mph14%29.62 "HgN/A
3:00 PM90 °FSunny.8 mph13%29.62 "Hg10 mi
2:30 PM90 °FPassing clouds.8 mph13%29.62 "HgN/A
2:00 PM90 °FSunny.8 mph14%29.62 "Hg10 mi
1:30 PM88 °FSunny.8 mph15%29.65 "Hg10 mi
1:00 PM86 °FSunny.10 mph18%29.65 "Hg10 mi
12:30 PM88 °FPassing clouds.8 mph19%29.65 "HgN/A
12:00 PM86 °FSunny.8 mph20%29.65 "Hg10 mi
11:30 AM84 °FPassing clouds.8 mph22%29.65 "HgN/A
11:00 AM84 °FSunny.6 mph23%29.65 "Hg10 mi
10:30 AM84 °FSunny.8 mph25%29.65 "Hg10 mi
10:00 AM81 °FPassing clouds.10 mph28%29.65 "HgN/A
9:30 AM81 °FSunny.10 mph28%29.65 "Hg10 mi
9:00 AM77 °FSunny.10 mph32%29.65 "Hg10 mi
8:30 AM75 °FSunny.8 mph34%29.65 "Hg10 mi
8:00 AM73 °FSunny.8 mph36%29.65 "Hg10 mi
Weather by CustomWeather, © 2016

See weather overviewHow to use our weather pages